{"data":{"norad_id":55299,"epoch":"2026-09-20T23:15:32.556384Z","epoch_age_seconds":52174,"freshness":"FRESH","line1":"1 55299U 23010AG  26263.96912681 -.00002733  00000+0 -22131-3 0  9995","line2":"2 55299  69.9980 251.9428 0003656 266.9553  93.1187 14.98329320203409","mean_motion":14.9832932,"eccentricity":0.0003656,"inclination_deg":69.998,"raan_deg":251.9428,"arg_perigee_deg":266.9553,"mean_anomaly_deg":93.1187,"bstar":-0.00022131,"rev_number":20340,"period_min":96.10704274278,"perigee_km":569.51700249939,"apogee_km":574.59898507885,"semimajor_km":6950.1949937891,"source":"CELESTRAK","updated_at":"2026-09-21T09:00:33.171498Z"}}